Moose Lake, MN

3:34 PM CDT on April 25, 2018 (GMT -0500)
Moose Lake-Carlton County

Weather History for KMZH - June, 2013

Change the Weather History Date:

Tuesday, June 25, 2013

  Actual Average Record
Temperature  
Mean Temperature 72 °F -  
Max Temperature 86 °F 78 °F 93 °F (2001)
Min Temperature 57 °F 49 °F 38 °F (1955)
Cooling Degree Days 6    
Growing Degree Days 22 (Base 50)    
Moisture  
Dew Point 62 °F    
Average Humidity 74    
Maximum Humidity 100    
Minimum Humidity 45    
Precipitation  
Precipitation 0.00 in - - ()
Sea Level Pressure  
Sea Level Pressure 29.78 in    
Wind  
Wind Speed 1 mph (SSE)    
Max Wind Speed 8 mph    
Max Gust Speed -    
Visibility 7 miles    
Events Fog    
Averages and records for this station are not official NWS values.
T = Trace of Precipitation, MM = Missing Value Source: NWS Daily Summary

Daily Weather History Graph

Daily Weather History Graph

Search for Another Location

Airport or City:

Astronomy

Jun. 25, 2013 Rise Set
Actual Time 5:19 AM CDT 9:07 PM CDT
Civil Twilight 4:40 AM CDT 9:46 PM CDT
Nautical Twilight 3:47 AM CDT 10:39 PM CDT
Astronomical Twilight 2:31 AM CDT 11:55 PM CDT
Moon 10:41 PM CDT 8:10 AM CDT
Length of Visible Light 17h 06m
Length of Day
15h 48m
Waning Gibbous, 92% of the Moon is Illuminated
Jun 25
Waning Gibbous
Jun 29
Last Quarter
Jul 8
New
Jul 15
First Quarter
Jul 22
Full

Hourly Weather History & Observations

Time (CDT) Temp. Heat Index Dew Point Humidity Pressure Visibility Wind Dir Wind Speed Gust Speed Precip Events Conditions
12:08 AM 60.8 °F - 60.8 °F 100% 29.81 in 7.0 mi Calm Calm - N/A   Scattered Clouds
12:28 AM 59.0 °F - 57.2 °F 94% 29.81 in 0.5 mi Calm Calm - N/A Fog Fog
12:48 AM 59.0 °F - 59.0 °F 100% 29.81 in 1.0 mi Calm Calm - N/A   Mostly Cloudy
1:08 AM 59.0 °F - 59.0 °F 100% 29.81 in 0.8 mi Calm Calm - N/A   Overcast
1:28 AM 59.0 °F - 59.0 °F 100% 29.81 in 1.0 mi Calm Calm - N/A   Overcast
1:48 AM 59.0 °F - 59.0 °F 100% 29.81 in 0.2 mi Calm Calm - N/A Fog Fog
2:08 AM 59.0 °F - 59.0 °F 100% 29.81 in 0.2 mi Calm Calm - N/A Fog Fog
2:28 AM 59.0 °F - 59.0 °F 100% 29.81 in 0.2 mi Calm Calm - N/A Fog Fog
2:48 AM 59.0 °F - 57.2 °F 94% 29.82 in 0.2 mi Calm Calm - N/A Fog Fog
3:08 AM 59.0 °F - 57.2 °F 94% 29.82 in 0.5 mi Calm Calm - N/A Fog Fog
3:28 AM 57.2 °F - 57.2 °F 100% 29.82 in 0.2 mi Calm Calm - N/A Fog Fog
3:48 AM 59.0 °F - 59.0 °F 100% 29.82 in 0.2 mi Calm Calm - N/A Fog Fog
4:08 AM 57.2 °F - 57.2 °F 100% 29.82 in 0.2 mi Calm Calm - N/A Fog Fog
4:28 AM 59.0 °F - 57.2 °F 94% 29.83 in 0.2 mi Calm Calm - N/A Fog Fog
4:48 AM 57.2 °F - 57.2 °F 100% 29.83 in 0.5 mi Calm Calm - N/A Fog Fog
5:08 AM 59.0 °F - 57.2 °F 94% 29.83 in 0.2 mi Calm Calm - N/A Fog Fog
5:28 AM 57.2 °F - 55.4 °F 94% 29.83 in 0.2 mi Calm Calm - N/A Fog Fog
5:48 AM 57.2 °F - 55.4 °F 94% 29.82 in 0.2 mi Calm Calm - N/A Fog Fog
6:08 AM 59.0 °F - 57.2 °F 94% 29.81 in 0.2 mi Calm Calm - N/A Fog Fog
6:28 AM 59.0 °F - 59.0 °F 100% 29.81 in 0.2 mi Calm Calm - N/A Fog Fog
6:48 AM 60.8 °F - 59.0 °F 94% 29.81 in 0.2 mi Calm Calm - N/A Fog Fog
7:08 AM 60.8 °F - 60.8 °F 100% 29.81 in 0.2 mi Calm Calm - N/A Fog Fog
7:28 AM 62.6 °F - 62.6 °F 100% 29.81 in 2.5 mi Calm Calm - N/A   Mostly Cloudy
7:48 AM 64.4 °F - 64.4 °F 100% 29.81 in 10.0 mi South 3.5 mph - N/A   Clear
8:08 AM 64.4 °F - 64.4 °F 100% 29.81 in 10.0 mi Calm Calm - N/A   Clear
8:28 AM 66.2 °F - 64.4 °F 94% 29.81 in 10.0 mi SSW 3.5 mph - N/A   Clear
8:48 AM 68.0 °F - 66.2 °F 94% 29.82 in 10.0 mi SW 3.5 mph - N/A   Clear
9:08 AM 68.0 °F - 68.0 °F 100% 29.81 in 10.0 mi Calm Calm - N/A   Clear
9:28 AM 73.4 °F - 64.4 °F 73% 29.81 in 10.0 mi Calm Calm - N/A   Clear
9:48 AM 73.4 °F - 62.6 °F 69% 29.80 in 10.0 mi Calm Calm - N/A   Clear
10:08 AM 75.2 °F - 64.4 °F 69% 29.80 in 10.0 mi ESE 3.5 mph - N/A   Clear
10:28 AM 77.0 °F - 62.6 °F 61% 29.80 in 10.0 mi ESE 4.6 mph - N/A   Clear
10:48 AM 77.0 °F - 62.6 °F 61% 29.80 in 10.0 mi ESE 6.9 mph - N/A   Clear
11:08 AM 78.8 °F - 64.4 °F 61% 29.80 in 10.0 mi Calm Calm - N/A   Clear
11:28 AM 78.8 °F - 64.4 °F 61% 29.80 in 10.0 mi ESE 4.6 mph - N/A   Clear
11:48 AM 78.8 °F - 62.6 °F 57% 29.80 in 10.0 mi SSE 4.6 mph - N/A   Clear
12:08 PM 80.6 °F 81.8 °F 62.6 °F 54% 29.80 in 10.0 mi South 4.6 mph - N/A   Clear
12:28 PM 80.6 °F 81.8 °F 62.6 °F 54% 29.79 in 10.0 mi SSE 3.5 mph - N/A   Clear
12:48 PM 80.6 °F 81.8 °F 62.6 °F 54% 29.79 in 10.0 mi South 5.8 mph - N/A   Clear
1:08 PM 80.6 °F 81.8 °F 62.6 °F 54% 29.79 in 10.0 mi Calm Calm - N/A   Clear
1:28 PM 82.4 °F 83.4 °F 62.6 °F 51% 29.79 in 10.0 mi South 3.5 mph - N/A   Clear
1:48 PM 82.4 °F 83.4 °F 62.6 °F 51% 29.79 in 10.0 mi ESE 3.5 mph - N/A   Clear
2:08 PM 84.2 °F 84.4 °F 60.8 °F 45% 29.79 in 10.0 mi ESE 4.6 mph - N/A   Clear
2:28 PM 84.2 °F 84.4 °F 60.8 °F 45% 29.78 in 10.0 mi SE 8.1 mph - N/A   Clear
2:48 PM 84.2 °F 84.4 °F 60.8 °F 45% 29.79 in 10.0 mi ESE 5.8 mph - N/A   Clear
3:08 PM 84.2 °F 84.4 °F 60.8 °F 45% 29.78 in 10.0 mi SSE 4.6 mph - N/A   Clear
3:28 PM 86.0 °F 86.6 °F 62.6 °F 45% 29.77 in 10.0 mi SE 8.1 mph - N/A   Clear
3:48 PM 86.0 °F 86.6 °F 62.6 °F 45% 29.77 in 10.0 mi SE 6.9 mph - N/A   Clear
4:08 PM 86.0 °F 86.6 °F 62.6 °F 45% 29.77 in 10.0 mi ESE 3.5 mph - N/A   Clear
4:28 PM 86.0 °F 86.6 °F 62.6 °F 45% 29.76 in 10.0 mi South 3.5 mph - N/A   Clear
4:48 PM 82.4 °F 83.9 °F 64.4 °F 54% 29.76 in 10.0 mi SE 5.8 mph - N/A   Scattered Clouds
5:08 PM 82.4 °F 83.4 °F 62.6 °F 51% 29.76 in 10.0 mi SSE 4.6 mph - N/A   Scattered Clouds
5:28 PM 84.2 °F 85.0 °F 62.6 °F 48% 29.75 in 10.0 mi Calm Calm - N/A   Clear
5:48 PM 86.0 °F 87.3 °F 64.4 °F 48% 29.75 in 10.0 mi SSE 5.8 mph - N/A   Clear
6:08 PM 84.2 °F 85.0 °F 62.6 °F 48% 29.74 in 10.0 mi SSE 4.6 mph - N/A   Clear
6:28 PM 82.4 °F 83.4 °F 62.6 °F 51% 29.74 in 10.0 mi SSE 3.5 mph - N/A   Clear
6:48 PM 82.4 °F 83.4 °F 62.6 °F 51% 29.74 in 10.0 mi SE 4.6 mph - N/A   Clear
7:08 PM 82.4 °F 83.9 °F 64.4 °F 54% 29.74 in 10.0 mi South 4.6 mph - N/A   Clear
7:28 PM 82.4 °F 83.9 °F 64.4 °F 54% 29.74 in 10.0 mi Calm Calm - N/A   Clear
7:48 PM 80.6 °F 82.3 °F 64.4 °F 58% 29.74 in 10.0 mi Calm Calm - N/A   Clear
8:08 PM 80.6 °F 82.3 °F 64.4 °F 58% 29.73 in 10.0 mi Calm Calm - N/A   Clear
8:28 PM 78.8 °F - 64.4 °F 61% 29.73 in 10.0 mi Calm Calm - N/A   Clear
8:48 PM 77.0 °F - 64.4 °F 65% 29.73 in 10.0 mi SSE 3.5 mph - N/A   Clear
9:08 PM 77.0 °F - 64.4 °F 65% 29.73 in 10.0 mi Calm Calm - N/A   Clear
9:28 PM 73.4 °F - 62.6 °F 69% 29.72 in 10.0 mi SSE 3.5 mph - N/A   Clear
9:48 PM 73.4 °F - 62.6 °F 69% 29.72 in 10.0 mi SSE 3.5 mph - N/A   Clear
10:08 PM 71.6 °F - 62.6 °F 73% 29.73 in 10.0 mi Calm Calm - N/A   Clear
10:28 PM 71.6 °F - 62.6 °F 73% 29.73 in 10.0 mi Calm Calm - N/A   Clear
10:51 PM 68.0 °F - 62.6 °F 83% 29.74 in 10.0 mi Calm Calm - N/A   Clear
11:08 PM 66.2 °F - 64.4 °F 94% 29.73 in 10.0 mi Calm Calm - N/A   Scattered Clouds
11:28 PM 64.4 °F - 62.6 °F 94% 29.74 in 10.0 mi Calm Calm - N/A   Clear
11:48 PM 64.4 °F - 62.6 °F 94% 29.73 in 10.0 mi Calm Calm - N/A   Clear